Flag for Poland Weather past 2 weeks in Kielce, Poland

Now
62 °F

Overcast.


Feels Like: 62 °F
Forecast: 53 / 71 °F
Wind: 3 mph from Northeast

Location: Kielce

Current Time: Sep 2, 2014 at 9:49:20 PM

Latest Report: Sep 2, 2014 at 8:00 PM


Visibility: 14 mi

Pressure: 30.11 "Hg

Humidity: 84%

Dew point: 57 °F

Location of KielceLocation

Historic Weather in Kielce — Graph

°F

Kielce temperature yesterday

Maximum temperature yesterday: 66 °F (at 2:00 PM)
Minimum temperature yesterday: 58 °F (at 6:00 AM)
Average temperature yesterday: 61 °F

Past Weeks' High & Low Weather Summary

 TemperatureHumidityPressure
High72 °F (Aug 31, 4:00 PM)100% (Aug 20, 1:00 AM)30.14 "Hg (Aug 20, 1:00 AM)
Low41 °F (Aug 29, 6:00 AM)42% (Aug 28, 4:00 PM)29.74 "Hg (Aug 26, 3:00 PM)
Average58 °F84%29.97 "Hg
* Reported Aug 18 8:00 PM — Sep 2 8:00 PM, Kielce, Weather by CustomWeather, © 2014

Note: Actual official high and low records may vary slightly from our data, if they occured in-between our weather recording intervals... More about our weather records

Advertising

Kielce weather history for previous 24 hours

 ConditionsComfort  
Time TempWeatherWind HumidityBarometerVisibility
8:00 PM
Sep 2
62 °FOvercast.3 mph84%30.11 "Hg14 mi
7:00 PM62 °FLow clouds.2 mph82%30.07 "Hg16 mi
6:00 PM63 °FOvercast.3 mph79%30.06 "Hg11 mi
5:00 PM64 °FOvercast.5 mph78%30.05 "Hg7 mi
4:00 PM63 °FOvercast.6 mph78%30.05 "Hg6 mi
3:00 PM63 °FOvercast.5 mph80%30.05 "Hg14 mi
2:00 PM64 °FOvercast.5 mph77%30.04 "Hg17 mi
1:00 PM65 °FOvercast.5 mph76%30.03 "Hg16 mi
12:00 PM63 °FOvercast.5 mph79%30.03 "Hg11 mi
11:00 AM61 °FOvercast.3 mph84%30.03 "Hg7 mi
10:00 AM61 °FOvercast.3 mph85%30.03 "Hg6 mi
9:00 AM60 °FFog.3 mph89%30.01 "Hg6 mi
8:00 AM59 °FFog.2 mph92%30.01 "Hg5 mi
7:00 AM58 °FFog.5 mph93%30.00 "Hg4 mi
6:00 AM58 °FFog.No wind95%29.99 "Hg2 mi
5:00 AM58 °FFog.2 mph94%29.98 "Hg2 mi
4:00 AM59 °FFog.2 mph94%29.98 "Hg2 mi
3:00 AM59 °FFog.2 mph94%29.98 "Hg2 mi
2:00 AM59 °FFog.1 mph93%29.99 "Hg5 mi
1:00 AM58 °FFog.2 mph93%29.98 "Hg6 mi
12:00 AM59 °FFog.3 mph92%29.99 "Hg5 mi
11:00 PM
Sep 1
59 °FFog.3 mph92%29.99 "Hg2 mi
10:00 PM60 °FFog.3 mph91%29.99 "Hg2 mi
9:00 PM60 °FFog.3 mph91%29.99 "Hg2 mi
Weather by CustomWeather, © 2014

See weather overviewHow to use our weather pages